TimeEST,TemperatureF,Dew PointF,Humidity,Sea Level PressureIn,VisibilityMPH,Wind Direction,Wind SpeedMPH,Gust SpeedMPH,PrecipitationIn,Events,Conditions,WindDirDegrees,DateUTC
12:15 AM,33.8,33.8,100,30.07,10.0,Calm,Calm,-,N/A,,Clear,0,2013-02-15 05:15:00
12:35 AM,33.8,33.8,100,30.07,10.0,Calm,Calm,-,N/A,,Clear,0,2013-02-15 05:35:00
12:55 AM,33.8,33.8,100,30.07,10.0,Calm,Calm,-,N/A,,Clear,0,2013-02-15 05:55:00
1:15 AM,32.0,32.0,100,30.07,10.0,Calm,Calm,-,N/A,,Clear,0,2013-02-15 06:15:00
1:35 AM,32.0,32.0,100,30.07,10.0,Calm,Calm,-,N/A,,Clear,0,2013-02-15 06:35:00
1:55 AM,32.0,32.0,100,30.07,10.0,Calm,Calm,-,N/A,,Clear,0,2013-02-15 06:55:00
2:15 AM,32.0,32.0,100,30.06,7.0,Calm,Calm,-,N/A,,Clear,0,2013-02-15 07:15:00
2:35 AM,32.0,32.0,100,30.07,7.0,Calm,Calm,-,N/A,,Clear,0,2013-02-15 07:35:00
2:55 AM,32.0,32.0,100,30.08,10.0,Calm,Calm,-,N/A,,Clear,0,2013-02-15 07:55:00
3:15 AM,32.0,32.0,100,30.08,10.0,Calm,Calm,-,N/A,,Clear,0,2013-02-15 08:15:00
3:35 AM,32.0,32.0,100,30.08,10.0,Calm,Calm,-,N/A,,Clear,0,2013-02-15 08:35:00
3:55 AM,32.0,32.0,100,30.07,7.0,Calm,Calm,-,N/A,,Scattered Clouds,0,2013-02-15 08:55:00
4:15 AM,32.0,32.0,100,30.07,10.0,Calm,Calm,-,N/A,,Scattered Clouds,0,2013-02-15 09:15:00
4:35 AM,32.0,32.0,100,30.07,10.0,Calm,Calm,-,N/A,,Clear,0,2013-02-15 09:35:00
4:55 AM,32.0,32.0,100,30.07,10.0,Calm,Calm,-,N/A,,Clear,0,2013-02-15 09:55:00
5:15 AM,32.0,32.0,100,30.08,10.0,Calm,Calm,-,N/A,,Scattered Clouds,0,2013-02-15 10:15:00
5:35 AM,30.2,30.2,100,30.08,7.0,Calm,Calm,-,N/A,,Clear,0,2013-02-15 10:35:00
5:55 AM,32.0,32.0,100,30.09,7.0,Calm,Calm,-,N/A,,Clear,0,2013-02-15 10:55:00
6:15 AM,30.2,30.2,100,30.10,7.0,Calm,Calm,-,N/A,,Clear,0,2013-02-15 11:15:00
6:35 AM,30.2,30.2,100,30.10,7.0,Calm,Calm,-,N/A,,Clear,0,2013-02-15 11:35:00
6:55 AM,30.2,30.2,100,30.10,10.0,Calm,Calm,-,N/A,,Clear,0,2013-02-15 11:55:00
7:15 AM,30.2,30.2,100,30.11,7.0,Calm,Calm,-,N/A,,Clear,0,2013-02-15 12:15:00
7:35 AM,30.2,30.2,100,30.12,7.0,Calm,Calm,-,N/A,,Clear,0,2013-02-15 12:35:00
7:55 AM,32.0,32.0,100,30.12,7.0,Calm,Calm,-,N/A,,Clear,0,2013-02-15 12:55:00
8:15 AM,32.0,32.0,100,30.12,10.0,Calm,Calm,-,N/A,,Clear,0,2013-02-15 13:15:00
8:35 AM,33.8,33.8,100,30.12,10.0,Calm,Calm,-,N/A,,Clear,0,2013-02-15 13:35:00
8:55 AM,35.6,35.6,100,30.12,10.0,Calm,Calm,-,N/A,,Clear,0,2013-02-15 13:55:00
9:15 AM,37.4,35.6,93,30.12,10.0,Calm,Calm,-,N/A,,Clear,0,2013-02-15 14:15:00
9:35 AM,41.0,37.4,87,30.11,10.0,SSE,5.8,-,N/A,,Clear,150,2013-02-15 14:35:00
9:55 AM,42.8,37.4,81,30.10,10.0,South,4.6,-,N/A,,Clear,170,2013-02-15 14:55:00
10:15 AM,44.6,37.4,76,30.10,10.0,SSE,6.9,-,N/A,,Clear,150,2013-02-15 15:15:00
10:35 AM,46.4,41.0,81,30.10,10.0,Calm,Calm,-,N/A,,Clear,0,2013-02-15 15:35:00
10:55 AM,48.2,39.2,71,30.10,10.0,Calm,Calm,-,N/A,,Clear,0,2013-02-15 15:55:00
11:15 AM,50.0,39.2,66,30.10,10.0,South,6.9,-,N/A,,Clear,190,2013-02-15 16:15:00
11:35 AM,51.8,41.0,67,30.10,10.0,SE,4.6,-,N/A,,Clear,140,2013-02-15 16:35:00
11:55 AM,53.6,41.0,62,30.10,10.0,Calm,Calm,-,N/A,,Clear,0,2013-02-15 16:55:00
12:15 PM,53.6,39.2,58,30.08,10.0,Calm,Calm,-,N/A,,Clear,0,2013-02-15 17:15:00
12:55 PM,57.2,41.0,55,30.07,10.0,South,3.5,-,N/A,,Scattered Clouds,180,2013-02-15 17:55:00
1:15 PM,59.0,37.4,45,30.05,10.0,SSW,4.6,-,N/A,,Scattered Clouds,210,2013-02-15 18:15:00
1:35 PM,59.0,35.6,42,30.04,10.0,SW,10.4,-,N/A,,Mostly Cloudy,230,2013-02-15 18:35:00
1:55 PM,57.2,35.6,44,30.02,10.0,SSW,4.6,-,N/A,,Mostly Cloudy,210,2013-02-15 18:55:00
2:15 PM,55.4,37.4,51,30.02,10.0,WNW,3.5,-,N/A,Rain,Light Rain,290,2013-02-15 19:15:00
2:35 PM,55.4,39.2,54,30.01,10.0,Calm,Calm,-,N/A,Rain,Light Rain,0,2013-02-15 19:35:00
2:55 PM,55.4,37.4,51,30.00,10.0,Calm,Calm,-,N/A,,Overcast,0,2013-02-15 19:55:00
3:15 PM,55.4,39.2,54,30.00,10.0,Calm,Calm,-,N/A,,Overcast,0,2013-02-15 20:15:00
3:35 PM,59.0,37.4,45,29.99,10.0,WNW,5.8,-,N/A,,Mostly Cloudy,290,2013-02-15 20:35:00
3:55 PM,57.2,35.6,44,29.99,10.0,NW,5.8,-,N/A,,Overcast,310,2013-02-15 20:55:00
4:15 PM,53.6,41.0,62,30.00,10.0,NW,9.2,-,N/A,Rain,Light Rain,310,2013-02-15 21:15:00
4:35 PM,53.6,41.0,62,30.00,10.0,WNW,4.6,-,N/A,Rain,Light Rain,300,2013-02-15 21:35:00
4:55 PM,53.6,42.8,67,30.01,10.0,WNW,3.5,-,N/A,,Overcast,300,2013-02-15 21:55:00
5:15 PM,53.6,37.4,54,30.02,10.0,NNW,12.7,-,N/A,,Mostly Cloudy,330,2013-02-15 22:15:00
5:35 PM,50.0,37.4,62,30.03,10.0,North,11.5,21.9,N/A,,Overcast,350,2013-02-15 22:35:00
5:55 PM,50.0,37.4,62,30.04,10.0,North,16.1,20.7,N/A,,Mostly Cloudy,350,2013-02-15 22:55:00
6:15 PM,48.2,35.6,62,30.05,10.0,North,15.0,21.9,N/A,,Mostly Cloudy,350,2013-02-15 23:15:00
6:35 PM,46.4,35.6,66,30.06,10.0,North,10.4,-,N/A,,Overcast,350,2013-02-15 23:35:00
6:55 PM,46.4,35.6,66,30.07,10.0,North,8.1,-,N/A,,Overcast,350,2013-02-15 23:55:00
7:15 PM,44.6,35.6,71,30.07,10.0,North,10.4,16.1,N/A,Rain,Light Rain,350,2013-02-16 00:15:00
7:35 PM,44.6,35.6,71,30.07,10.0,North,9.2,-,N/A,,Overcast,360,2013-02-16 00:35:00
7:55 PM,44.6,35.6,71,30.07,10.0,North,10.4,-,N/A,,Overcast,360,2013-02-16 00:55:00
8:15 PM,44.6,35.6,71,30.07,10.0,North,8.1,-,N/A,,Overcast,350,2013-02-16 01:15:00
8:35 PM,44.6,35.6,71,30.07,10.0,North,9.2,-,N/A,,Overcast,360,2013-02-16 01:35:00
8:55 PM,44.6,35.6,71,30.07,10.0,North,6.9,-,N/A,,Overcast,360,2013-02-16 01:55:00
9:15 PM,44.6,35.6,71,30.07,10.0,North,9.2,-,N/A,,Overcast,360,2013-02-16 02:15:00
9:35 PM,42.8,35.6,76,30.07,10.0,North,6.9,-,N/A,,Overcast,350,2013-02-16 02:35:00
9:55 PM,42.8,35.6,76,30.08,10.0,NNW,9.2,-,N/A,,Overcast,340,2013-02-16 02:55:00
10:15 PM,42.8,35.6,76,30.08,10.0,North,9.2,-,N/A,,Mostly Cloudy,350,2013-02-16 03:15:00
10:35 PM,42.8,35.6,76,30.08,10.0,North,8.1,-,N/A,,Overcast,350,2013-02-16 03:35:00
10:55 PM,42.8,35.6,76,30.07,10.0,North,5.8,-,N/A,,Overcast,350,2013-02-16 03:55:00
11:15 PM,41.0,33.8,76,30.07,10.0,NNW,5.8,-,N/A,,Overcast,340,2013-02-16 04:15:00
11:35 PM,41.0,33.8,76,30.07,10.0,North,8.1,-,N/A,,Overcast,350,2013-02-16 04:35:00
11:55 PM,41.0,33.8,76,30.06,10.0,North,10.4,-,N/A,,Scattered Clouds,350,2013-02-16 04:55:00